| time (UTC) | temp C | wind direction | speed KPH | gust KPH | rain 1hr cm | rain 24hr cm | rain mn cm | humidity % | barometer mb |
| 20260505065908 | 12 | 34 | 1.6 | 11.3 | 0.00 | 0.30 | 0.30 | 71 | 1005.5 |
| 20260505064914 | 12 | 138 | 1.6 | 11.3 | 0.00 | 0.30 | 0.30 | 74 | 1006.0 |
| 20260505063917 | 13 | 158 | 1.6 | 8.0 | 0.00 | 0.25 | 0.25 | 78 | 1004.8 |
| 20260505061751 | 13 | 345 | 0.0 | 6.4 | 0.00 | 0.25 | 0.25 | 85 | 1004.9 |
| 20260505060722 | 14 | 265 | 0.0 | 4.8 | 0.00 | 0.25 | 0.25 | 87 | 1004.3 |
| 20260505055714 | 14 | 216 | 0.0 | 0.0 | 0.00 | 0.25 | 0.25 | 87 | 1003.7 |
| 20260505054730 | 14 | 215 | 0.0 | 1.6 | 0.00 | 0.25 | 0.25 | 85 | 1003.3 |
| 20260505053752 | 15 | 215 | 0.0 | 0.0 | 0.20 | 0.25 | 0.25 | 82 | 1003.5 |
| 20260505052720 | 15 | 120 | 0.0 | 1.6 | 0.25 | 0.23 | 0.23 | 75 | 1003.6 |
| 20260505051730 | 17 | 355 | 1.6 | 12.9 | 0.25 | 0.10 | 0.10 | 65 | 1003.2 |
| 20260505050702 | 21 | 74 | 3.2 | 17.7 | 0.00 | 0.00 | 0.00 | 48 | 1003.3 |
| 20260505040252 | 22 | 163 | 3.2 | 19.3 | 0.00 | 0.00 | 0.00 | 67 | 1001.7 |
| 20260505035244 | 22 | 187 | 3.2 | 14.5 | 0.00 | 0.00 | 0.00 | 67 | 1001.8 |
| 20260505033123 | 22 | 188 | 1.6 | 12.9 | 0.00 | 0.00 | 0.00 | 65 | 1001.9 |
| 20260505032140 | 23 | 203 | 1.6 | 9.7 | 0.00 | 0.00 | 0.00 | 64 | 1001.8 |
| 20260505031146 | 23 | 192 | 1.6 | 8.0 | 0.00 | 0.00 | 0.00 | 63 | 1001.7 |
| 20260505030202 | 23 | 198 | 0.0 | 8.0 | 0.00 | 0.00 | 0.00 | 61 | 1001.6 |
| 20260505022915 | 23 | 191 | 0.0 | 1.6 | 0.00 | 0.00 | 0.00 | 57 | 1001.2 |
| 20260505021903 | 23 | 272 | 0.0 | 0.0 | 0.00 | 0.00 | 0.00 | 55 | 1001.0 |
| 20260505020850 | 23 | 275 | 0.0 | 0.0 | 0.00 | 0.00 | 0.00 | 54 | 1000.9 |
| 20260505012448 | 25 | 277 | 0.0 | 0.0 | 0.00 | 0.00 | 0.00 | 50 | 1000.4 |
| 20260505011457 | 25 | 277 | 0.0 | 0.0 | 0.00 | 0.00 | 0.00 | 49 | 1000.3 |
| 20260505010424 | 25 | 277 | 0.0 | 0.0 | 0.00 | 0.00 | 0.00 | 48 | 1000.0 |
| 20260505005449 | 26 | 277 | 0.0 | 0.0 | 0.00 | 0.00 | 0.00 | 47 | 1000.0 |
| 20260505004421 | 26 | 277 | 0.0 | 0.0 | 0.00 | 0.00 | 0.00 | 47 | 999.9 |
| 20260505002250 | 27 | 276 | 0.0 | 1.6 | 0.00 | 0.00 | 0.00 | 45 | 999.6 |
| 20260505000116 | 27 | 242 | 0.0 | 6.4 | 0.00 | 0.00 | 0.00 | 45 | 999.6 |
| 20260504235058 | 27 | 211 | 0.0 | 3.2 | 0.00 | 0.00 | 0.00 | 45 | 999.6 |
| 20260504234054 | 27 | 206 | 0.0 | 8.0 | 0.00 | 0.00 | 0.00 | 44 | 999.7 |
| 20260504233055 | 27 | 196 | 0.0 | 6.4 | 0.00 | 0.00 | 0.00 | 44 | 999.8 |
| 20260504232117 | 27 | 203 | 0.0 | 16.1 | 0.00 | 0.00 | 0.00 | 42 | 999.7 |
| 20260504231122 | 28 | 267 | 1.6 | 16.1 | 0.00 | 0.00 | 0.00 | 41 | 999.7 |
| 20260504223958 | 27 | 254 | 1.6 | 9.7 | 0.00 | 0.00 | 0.00 | 43 | 999.8 |
| 20260504222929 | 27 | 286 | 1.6 | 9.7 | 0.00 | 0.00 | 0.00 | 42 | 999.8 |
| 20260504221916 | 27 | 178 | 0.0 | 1.6 | 0.00 | 0.00 | 0.00 | 42 | 999.9 |
| 20260504220902 | 27 | 283 | 1.6 | 11.3 | 0.00 | 0.00 | 0.00 | 40 | 999.8 |
| 20260504214743 | 27 | 202 | 1.6 | 12.9 | 0.00 | 0.00 | 0.00 | 41 | 1000.1 |
| 20260504213726 | 27 | 208 | 1.6 | 12.9 | 0.00 | 0.00 | 0.00 | 43 | 1000.1 |
| 20260504212659 | 27 | 142 | 1.6 | 12.9 | 0.00 | 0.00 | 0.00 | 41 | 1000.3 |
| 20260504211658 | 28 | 179 | 3.2 | 12.9 | 0.00 | 0.00 | 0.00 | 41 | 1000.2 |
| 20260504210631 | 28 | 221 | 1.6 | 17.7 | 0.00 | 0.00 | 0.00 | 40 | 1000.1 |
| 20260504205648 | 28 | 199 | 4.8 | 22.5 | 0.00 | 0.00 | 0.00 | 41 | 1000.3 |
| 20260504204655 | 28 | 188 | 4.8 | 22.5 | 0.00 | 0.00 | 0.00 | 40 | 1000.4 |
| 20260504203720 | 29 | 198 | 1.6 | 16.1 | 0.00 | 0.00 | 0.00 | 39 | 1000.5 |
| 20260504202726 | 28 | 321 | 3.2 | 16.1 | 0.00 | 0.00 | 0.00 | 41 | 1000.5 |
| 20260504201722 | 28 | 226 | 3.2 | 16.1 | 0.00 | 0.00 | 0.00 | 41 | 1000.5 |
| 20260504200737 | 28 | 180 | 3.2 | 16.1 | 0.00 | 0.00 | 0.00 | 41 | 1000.6 |
| 20260504195720 | 28 | 197 | 4.8 | 16.1 | 0.00 | 0.00 | 0.00 | 42 | 1000.7 |
| 20260504194655 | 28 | 192 | 4.8 | 16.1 | 0.00 | 0.00 | 0.00 | 42 | 1000.6 |
| 20260504193637 | 28 | 175 | 1.6 | 12.9 | 0.00 | 0.00 | 0.00 | 41 | 1000.8 |
| 20260504192640 | 28 | 319 | 1.6 | 8.0 | 0.00 | 0.00 | 0.00 | 39 | 1000.8 |
| 20260504185337 | 27 | 209 | 6.4 | 25.7 | 0.00 | 0.00 | 0.00 | 41 | 1001.1 |
| 20260504184306 | 27 | 178 | 3.2 | 19.3 | 0.00 | 0.00 | 0.00 | 45 | 1001.0 |
| 20260504183320 | 26 | 190 | 4.8 | 19.3 | 0.00 | 0.00 | 0.00 | 43 | 1001.1 |
| 20260504181141 | 26 | 205 | 4.8 | 16.1 | 0.00 | 0.00 | 0.00 | 45 | 1001.2 |
| 20260504180134 | 26 | 205 | 4.8 | 16.1 | 0.00 | 0.00 | 0.00 | 44 | 1001.5 |
| 20260504175059 | 26 | 205 | 3.2 | 12.9 | 0.00 | 0.00 | 0.00 | 43 | 1001.5 |
| 20260504174112 | 26 | 300 | 3.2 | 14.5 | 0.00 | 0.00 | 0.00 | 42 | 1001.5 |
| 20260504173117 | 26 | 204 | 3.2 | 16.1 | 0.00 | 0.00 | 0.00 | 44 | 1001.6 |
| 20260504172123 | 25 | 188 | 1.6 | 16.1 | 0.00 | 0.00 | 0.00 | 44 | 1001.7 |
| 20260504171137 | 25 | 264 | 3.2 | 14.5 | 0.00 | 0.00 | 0.00 | 43 | 1001.8 |
| 20260504170119 | 25 | 269 | 3.2 | 22.5 | 0.00 | 0.00 | 0.00 | 46 | 1001.7 |
| 20260504140900 | 20 | 192 | 3.2 | 22.5 | 0.00 | 0.00 | 0.00 | 54 | 1002.5 |
| 20260504130747 | 18 | 224 | 4.8 | 17.7 | 0.00 | 0.00 | 0.00 | 54 | 1002.1 |
| 20260504110559 | 18 | 246 | 1.6 | 12.9 | 0.00 | 0.00 | 0.00 | 53 | 1002.7 |
| 20260504100403 | 19 | 219 | 1.6 | 9.7 | 0.00 | 0.00 | 0.00 | 50 | 1003.1 |
| 20260504081229 | 18 | 191 | 1.6 | 19.3 | 0.00 | 0.00 | 0.00 | 52 | 1003.9 |
| 20260504080249 | 18 | 188 | 0.0 | 4.8 | 0.00 | 0.00 | 0.00 | 53 | 1004.1 |